Regional Weather Roundup
Issued by NWS Jackson, KY

Home | Current Version | Previous Version | Text Only | Print | Product List | Glossary Off
Versions: 1 2 3 4 5 6 7 8 9 10 11 12 13 14 15 16 17 18 19 20 21 22 23 24 25 26 27

000
ASUS43 KJKL 271710
RWRJKL

EAST KENTUCKY HOURLY WEATHER ROUNDUP
NATIONAL WEATHER SERVICE JACKSON KY
100 PM EDT WED JUL 27 2016

NOTE: "FAIR" INDICATES FEW OR NO CLOUDS BELOW 12,000 FEET WITH
NO SIGNIFICANT WEATHER AND/OR OBSTRUCTIONS TO VISIBILITY.

* THESE REPORTS ARE NOT UNDER NWS QUALITY CONTROL AND MAY NOT
  REPORT WEATHER SUCH AS PRECIPITATION AND FOG.

KYZ079-080-083-085-087-088-110-112-115-119-120-271800
...EASTERN KENTUCKY...

CITY           SKY/WX    TMP DP  RH WIND       PRES   REMARKS
JACKSON        CLOUDY    87  74  64 VRB3      30.04F HX  95
LONDON         MOSUNNY   88  70  55 CALM      30.04F HX  93
SOMERSET*      MOSUNNY   84  72  65 S3        30.05S
MONTICELLO*    SUNNY    N/A N/A N/A W13       30.06S
WILLIAMSBURG*  SUNNY     88  75  66 CALM      30.04F HX  97
MIDDLESBORO*   MOSUNNY   91  73  57 CALM      30.04F HX  99
HARLAN APT*      N/A     90  70  51 S5        30.06F HX  95
PIKE CO APT*     N/A     86  77  75 W3        30.04F HX  96
MOREHEAD APT*  MOSUNNY   84  75  74 CALM      30.05S HX  92
ASHLAND*       MOSUNNY   84  75  74 CALM      29.99F HX  92
$$

KYZ035-036-041-042-044-050-067-078-099-271800
...CENTRAL KENTUCKY...

CITY           SKY/WX    TMP DP  RH WIND       PRES   REMARKS
MT STERLING*   LGT RAIN  84  77  79 CALM      30.04F HX  94
FLEMING/MASON* MOSUNNY   84  72  67 CALM      30.03F HX  90
DANVILLE*      PTSUNNY   88  73  62 CALM      30.04F HX  96
LEXINGTON      MOSUNNY   88  73  61 CALM      30.02F HX  95
FRANKFORT      PTSUNNY   89  74  60 VRB3      30.00F HX  98
LOUISVILLE     CLOUDY    87  72  60 SW8       29.99S HX  93
LEBANON*         N/A     90  73  58 SE7       30.02S HX  98
GLASGOW*       SUNNY     89  74  61 CALM      30.01F HX  98
BOWLING GREEN  CLOUDY    90  73  57 CALM      30.01S HX  98
$$

KYZ091>093-OHZ055-061-077-WVZ005-015-034-035-042-271800
...SOUTHERN OHIO/WEST VIRGINIA...

CITY           SKY/WX    TMP DP  RH WIND       PRES   REMARKS
COVINGTON      CLOUDY    85  73  67 CALM      30.01F HX  91
COLUMBUS       MOSUNNY   85  66  53 CALM      30.00S
DAYTON         MOSUNNY   85  68  56 W5        30.03S
WILMINGTON     MOSUNNY   84  70  62 CALM      30.02S
HUNTINGTON     PTSUNNY   85  74  69 CALM      30.01F HX  92
CHARLESTON       N/A     85  72  65 VRB6      30.03S HX  91
PINEVILLE*       N/A     89  69  51 MISG      30.11F HX  93
BECKLEY        PTSUNNY   80  69  69 SW9       30.12R
BLUEFIELD        N/A     82  65  56 NW6       30.14F
LOGAN CO APT*  PTSUNNY   86  73  66 W6G13     30.04F HX  93
$$

VAZ002-007-008-TNZ017-027-036-066-071-271800
...SOUTHWEST VIRGINIA/EAST TENNESSEE...

CITY           SKY/WX    TMP DP  RH WIND       PRES   REMARKS
WISE*            N/A     84  64  51 NW6       30.14F
JONESVILLE*      N/A    N/A N/A N/A MISG        N/A
ABINGDON*      PTSUNNY   87  72  60 W8        30.10F HX  94
BRISTOL        MOSUNNY   89  71  55 S3        30.07F HX  95
MORRISTOWN*    SUNNY     90  72  55 VRB5      30.05F HX  96
SEVIERVILLE*     N/A     91  70  49 W7        30.03F HX  97
KNOXVILLE      MOSUNNY   89  72  56 VRB5      30.04F HX  96
OAK RIDGE      SUNNY     92  71  50 VRB7      30.05F HX  98
CROSSVILLE     PTSUNNY   84  71  65 CALM      30.10F
NASHVILLE      MOSUNNY   90  73  57 SW3       30.02S HX  98
$$

...KEY TO REMARKS...
VSB - VISIBILITY IN MILES
WCI - WIND CHILL INDEX
HX  - HEAT INDEX

$$




USA.gov is the U.S. government's official web portal to all federal, state and local government web resources and services.